�������l�o���
Date,Time,MP-1(��Sv/h),MP-2(��Sv/h),MP-3(��Sv/h),MP-4(��Sv/h),MP-5(��Sv/h),MP-6(��Sv/h),MP-7(��Sv/h),MP-8(��Sv/h),����,����(m/s),���J
2019/10/27,00:00,0.703,0.981,0.647,1.218,0.840,0.408,0.707,0.669,�k��,2.6,��
2019/10/27,00:10,0.703,0.982,0.648,1.220,0.842,0.408,0.705,0.671,���k��,2.9,��
2019/10/27,00:20,0.704,0.979,0.646,1.220,0.840,0.408,0.705,0.669,���k��,2.5,��
2019/10/27,00:30,0.703,0.982,0.646,1.219,0.839,0.408,0.705,0.669,���k��,1.8,��
2019/10/27,00:40,0.700,0.981,0.647,1.220,0.840,0.408,0.704,0.671,���쐼,1.2,��
2019/10/27,00:50,0.702,0.980,0.645,1.219,0.840,0.408,0.707,0.669,���쐼,0.6,��
2019/10/27,01:00,0.703,0.981,0.647,1.221,0.840,0.407,0.705,0.670,�k��,1.2,��
2019/10/27,01:10,0.703,0.980,0.648,1.220,0.842,0.408,0.705,0.668,��,1.4,��
2019/10/27,01:20,0.701,0.980,0.647,1.220,0.839,0.407,0.707,0.669,���k��,2.1,��
2019/10/27,01:30,0.704,0.982,0.647,1.221,0.841,0.407,0.705,0.670,��,1.7,��
2019/10/27,01:40,0.702,0.981,0.647,1.219,0.840,0.408,0.706,0.670,��,1.5,��
2019/10/27,01:50,0.703,0.984,0.648,1.218,0.841,0.409,0.705,0.672,��,1.4,��
2019/10/27,02:00,0.704,0.981,0.647,1.222,0.840,0.409,0.706,0.669,���쐼,1.0,��
2019/10/27,02:10,0.703,0.982,0.646,1.222,0.840,0.410,0.705,0.669,��쓌,1.6,��
2019/10/27,02:20,0.703,0.983,0.646,1.220,0.842,0.410,0.705,0.669,���쓌,1.1,��
2019/10/27,02:30,0.703,0.982,0.647,1.221,0.842,0.410,0.706,0.670,���쓌,0.9,��
2019/10/27,02:40,0.703,0.983,0.647,1.221,0.841,0.409,0.706,0.670,���쓌,0.9,��
2019/10/27,02:50,0.704,0.980,0.646,1.221,0.842,0.407,0.706,0.670,���k��,0.5,��
2019/10/27,03:00,0.702,0.983,0.648,1.222,0.841,0.409,0.705,0.669,�k�k��,0.9,��
2019/10/27,03:10,0.703,0.984,0.646,1.220,0.843,0.409,0.706,0.670,���k��,0.7,��
2019/10/27,03:20,0.703,0.984,0.647,1.220,0.840,0.409,0.705,0.670,���쓌,0.6,��
2019/10/27,03:30,0.703,0.984,0.649,1.222,0.842,0.408,0.706,0.670,-,CALM,��
2019/10/27,03:40,0.703,0.983,0.647,1.223,0.844,0.409,0.703,0.671,�k�k��,1.3,��
2019/10/27,03:50,0.703,0.983,0.646,1.221,0.844,0.410,0.705,0.669,���k��,2.4,��
2019/10/27,04:00,0.703,0.983,0.648,1.222,0.843,0.410,0.705,0.671,���k��,3.1,��
2019/10/27,04:10,0.702,0.984,0.648,1.222,0.843,0.409,0.704,0.670,�k��,2.0,��
2019/10/27,04:20,0.706,0.984,0.647,1.222,0.843,0.407,0.704,0.671,-,CALM,��
2019/10/27,04:30,0.703,0.985,0.648,1.221,0.842,0.408,0.706,0.670,�k,1.7,��
2019/10/27,04:40,0.702,0.986,0.648,1.221,0.842,0.409,0.706,0.671,�k,1.6,��
2019/10/27,04:50,0.703,0.984,0.648,1.221,0.844,0.409,0.705,0.671,�k�k��,2.6,��
2019/10/27,05:00,0.704,0.986,0.649,1.222,0.842,0.412,0.705,0.671,�k�k��,2.1,��
2019/10/27,05:10,0.704,0.986,0.650,1.222,0.841,0.408,0.703,0.672,�k��,2.8,��
2019/10/27,05:20,0.702,0.984,0.648,1.224,0.845,0.409,0.705,0.672,�k��,3.5,��
2019/10/27,05:30,0.705,0.987,0.647,1.221,0.843,0.409,0.705,0.670,�k��,2.9,��
2019/10/27,05:40,0.704,0.984,0.648,1.219,0.845,0.407,0.707,0.670,�k��,2.3,��
2019/10/27,05:50,0.703,0.983,0.646,1.221,0.846,0.408,0.705,0.672,�k�k��,3.3,��
2019/10/27,06:00,0.704,0.985,0.648,1.222,0.844,0.409,0.705,0.670,�k�k��,3.5,��
2019/10/27,06:10,0.703,0.988,0.646,1.223,0.846,0.408,0.706,0.672,�k�k��,3.6,��
2019/10/27,06:20,0.705,0.987,0.649,1.223,0.844,0.409,0.707,0.671,�k��,4.7,��
2019/10/27,06:30,0.705,0.986,0.648,1.220,0.844,0.409,0.706,0.671,�k��,4.1,��
2019/10/27,06:40,0.704,0.988,0.648,1.224,0.844,0.408,0.707,0.670,�k�k��,3.1,��
2019/10/27,06:50,0.704,0.989,0.649,1.224,0.844,0.408,0.705,0.670,�k,3.1,��
2019/10/27,07:00,0.704,0.987,0.647,1.224,0.845,0.408,0.707,0.670,�k�k��,2.9,��
2019/10/27,07:10,0.704,0.989,0.648,1.220,0.844,0.408,0.705,0.671,�k�k��,3.6,��
2019/10/27,07:20,0.705,0.986,0.649,1.221,0.844,0.409,0.706,0.670,�k,2.9,��
2019/10/27,07:30,0.702,0.986,0.647,1.224,0.845,0.408,0.706,0.672,�k�k��,3.0,��
2019/10/27,07:40,0.704,0.990,0.648,1.223,0.845,0.409,0.707,0.671,�k�k��,2.4,��
2019/10/27,07:50,0.704,0.989,0.650,1.226,0.846,0.410,0.706,0.672,�k��,3.5,��
2019/10/27,08:00,0.704,0.989,0.650,1.222,0.844,0.408,0.707,0.672,�k��,2.7,��
2019/10/27,08:10,0.706,0.989,0.649,1.224,0.845,0.410,0.705,0.672,�k�k��,3.0,��
2019/10/27,08:20,0.705,0.986,0.649,1.223,0.846,0.408,0.706,0.672,�k�k��,3.0,��
2019/10/27,08:30,0.705,0.989,0.651,1.223,0.846,0.410,0.705,0.672,�k,2.9,��
2019/10/27,08:40,0.704,0.991,0.648,1.224,0.846,0.410,0.705,0.672,�k�k��,2.7,��
2019/10/27,08:50,0.706,0.987,0.649,1.224,0.847,0.409,0.706,0.672,�k��,2.0,��
2019/10/27,09:00,0.704,0.988,0.651,1.224,0.848,0.409,0.705,0.673,�k��,1.4,��
2019/10/27,09:10,0.708,0.992,0.650,1.224,0.847,0.409,0.707,0.671,�k�k��,2.1,��
2019/10/27,09:20,0.707,0.988,0.650,1.222,0.847,0.409,0.704,0.671,�k�k��,3.1,��
2019/10/27,09:30,0.705,0.989,0.650,1.224,0.847,0.408,0.705,0.671,�k,2.9,��
2019/10/27,09:40,0.703,0.990,0.649,1.226,0.847,0.408,0.704,0.672,�k,2.9,��
2019/10/27,09:50,0.707,0.988,0.651,1.226,0.848,0.408,0.705,0.671,�k,2.7,��
2019/10/27,10:00,0.705,0.990,0.650,1.226,0.846,0.408,0.705,0.669,�k,2.8,��
2019/10/27,10:10,0.703,0.988,0.651,1.227,0.847,0.406,0.705,0.671,�k,3.8,��
2019/10/27,10:20,0.703,0.987,0.650,1.226,0.846,0.408,0.708,0.671,�k,2.4,��
2019/10/27,10:30,0.704,0.986,0.650,1.226,0.848,0.406,0.706,0.668,�k,2.6,��
2019/10/27,10:40,0.704,0.990,0.650,1.226,0.844,0.408,0.707,0.670,�k�k��,3.2,��
2019/10/27,10:50,0.703,0.987,0.649,1.227,0.844,0.407,0.707,0.670,�k�k��,3.6,��
2019/10/27,11:00,0.703,0.988,0.646,1.226,0.845,0.407,0.705,0.669,�k��,3.5,��
2019/10/27,11:10,0.704,0.987,0.647,1.226,0.845,0.407,0.704,0.669,�k�k��,3.8,��
2019/10/27,11:20,0.703,0.989,0.647,1.227,0.846,0.408,0.707,0.671,�k�k��,4.7,��
2019/10/27,11:30,0.705,0.990,0.647,1.225,0.847,0.406,0.707,0.671,�k��,4.5,��
2019/10/27,11:40,0.705,0.987,0.647,1.227,0.847,0.408,0.707,0.671,�k�k��,3.8,��
2019/10/27,11:50,0.705,0.988,0.649,1.224,0.850,0.408,0.707,0.669,�k�k��,4.1,��
2019/10/27,12:00,0.705,0.989,0.650,1.225,0.848,0.407,0.707,0.670,�k�k��,4.9,��
2019/10/27,12:10,0.704,0.990,0.649,1.229,0.849,0.406,0.707,0.670,�k�k��,4.4,��
2019/10/27,12:20,0.705,0.989,0.649,1.226,0.846,0.409,0.708,0.670,�k,3.8,��
2019/10/27,12:30,0.705,0.990,0.647,1.228,0.849,0.408,0.707,0.670,�k��,3.5,��
2019/10/27,12:40,0.707,0.990,0.647,1.227,0.850,0.408,0.707,0.669,�k�k��,2.7,��
2019/10/27,12:50,0.705,0.990,0.647,1.228,0.849,0.409,0.708,0.671,�k�k��,3.2,��
2019/10/27,13:00,0.707,0.990,0.649,1.227,0.849,0.409,0.708,0.670,���k��,3.0,��
2019/10/27,13:10,0.706,0.993,0.649,1.229,0.850,0.408,0.706,0.670,�k��,2.9,��
2019/10/27,13:20,0.708,0.993,0.650,1.229,0.853,0.408,0.708,0.669,�k��,2.4,��
2019/10/27,13:30,0.706,0.994,0.648,1.228,0.851,0.408,0.709,0.669,�k��,2.2,��
2019/10/27,13:40,0.708,0.995,0.649,1.226,0.851,0.408,0.709,0.670,���k��,2.4,��
2019/10/27,13:50,0.708,0.995,0.651,1.231,0.851,0.409,0.707,0.671,���k��,2.2,��
2019/10/27,14:00,0.707,0.994,0.651,1.231,0.849,0.410,0.708,0.672,���k��,1.4,��
2019/10/27,14:10,0.708,0.994,0.650,1.231,0.852,0.409,0.709,0.671,��,1.5,��
2019/10/27,14:20,0.708,0.994,0.648,1.230,0.853,0.409,0.710,0.670,���k��,1.4,��
2019/10/27,14:30,0.707,0.994,0.650,1.229,0.851,0.411,0.707,0.671,���k��,1.4,��
2019/10/27,14:40,0.709,0.995,0.651,1.230,0.851,0.410,0.708,0.671,���쓌,1.4,��
2019/10/27,14:50,0.708,0.993,0.651,1.227,0.853,0.410,0.708,0.672,���k��,1.5,��
2019/10/27,15:00,0.709,0.993,0.650,1.230,0.849,0.411,0.708,0.671,���k��,1.3,��
2019/10/27,15:10,0.707,0.995,0.650,1.228,0.852,0.409,0.708,0.671,�k�k��,1.7,��
2019/10/27,15:20,0.707,0.992,0.649,1.231,0.851,0.410,0.707,0.670,�k��,1.5,��
2019/10/27,15:30,0.707,0.994,0.648,1.229,0.852,0.410,0.708,0.670,���k��,0.6,��
2019/10/27,15:40,0.706,0.996,0.648,1.229,0.852,0.410,0.708,0.670,�k�k��,0.8,��
2019/10/27,15:50,0.707,0.994,0.649,1.229,0.853,0.411,0.708,0.671,�k��,0.9,��
2019/10/27,16:00,0.708,0.998,0.651,1.230,0.851,0.412,0.708,0.671,�k,0.8,��
2019/10/27,16:10,0.708,0.998,0.653,1.230,0.853,0.411,0.708,0.672,�k�k��,0.5,��
2019/10/27,16:20,0.709,0.997,0.652,1.228,0.856,0.412,0.707,0.674,-,CALM,��
2019/10/27,16:30,0.710,0.998,0.650,1.229,0.855,0.411,0.708,0.672,���쐼,0.6,��
2019/10/27,16:40,0.710,0.996,0.650,1.231,0.853,0.411,0.707,0.673,�쐼,1.3,��
2019/10/27,16:50,0.709,0.998,0.653,1.228,0.855,0.412,0.708,0.673,�쐼,1.1,��
2019/10/27,17:00,0.711,0.998,0.652,1.230,0.855,0.412,0.708,0.674,���쐼,1.6,��
2019/10/27,17:10,0.710,0.999,0.652,1.230,0.853,0.413,0.709,0.672,�k��,2.9,�L
2019/10/27,17:20,0.709,0.998,0.651,1.231,0.857,0.411,0.709,0.673,�k��,2.7,��
2019/10/27,17:30,0.710,0.996,0.651,1.230,0.855,0.411,0.709,0.673,���k��,2.9,��
2019/10/27,17:40,0.709,0.998,0.649,1.226,0.856,0.412,0.709,0.673,��,3.6,��
2019/10/27,17:50,0.709,0.997,0.651,1.233,0.857,0.411,0.709,0.671,��,4.0,��
2019/10/27,18:00,0.710,0.996,0.650,1.230,0.856,0.413,0.709,0.672,��,4.5,��
2019/10/27,18:10,0.710,0.997,0.651,1.231,0.856,0.410,0.708,0.672,��,5.2,��
2019/10/27,18:20,0.707,0.998,0.651,1.229,0.854,0.411,0.709,0.672,��,4.7,��
2019/10/27,18:30,0.708,0.999,0.651,1.230,0.854,0.411,0.709,0.674,���쐼,1.9,��
2019/10/27,18:40,0.708,0.999,0.652,1.232,0.856,0.409,0.708,0.673,���쐼,0.9,��
2019/10/27,18:50,0.709,0.997,0.650,1.229,0.855,0.411,0.707,0.672,��,2.9,��
2019/10/27,19:00,0.708,0.996,0.650,1.231,0.855,0.412,0.708,0.672,��,4.6,��
2019/10/27,19:10,0.708,0.998,0.651,1.230,0.855,0.410,0.707,0.673,��,6.4,��
2019/10/27,19:20,0.708,0.999,0.651,1.231,0.855,0.410,0.708,0.672,���k��,6.9,��
2019/10/27,19:30,0.709,0.999,0.653,1.233,0.857,0.410,0.708,0.673,���k��,5.7,��
2019/10/27,19:40,0.710,0.998,0.651,1.230,0.856,0.411,0.709,0.673,���k��,6.6,��
2019/10/27,19:50,0.708,0.999,0.650,1.233,0.855,0.410,0.709,0.673,��,5.8,��
2019/10/27,20:00,0.709,0.998,0.651,1.232,0.856,0.411,0.708,0.673,���k��,6.3,��
2019/10/27,20:10,0.707,1.000,0.652,1.232,0.856,0.411,0.708,0.674,���k��,5.6,��
2019/10/27,20:20,0.708,0.999,0.651,1.231,0.857,0.410,0.709,0.673,���k��,4.6,��
2019/10/27,20:30,0.708,0.998,0.650,1.232,0.854,0.410,0.710,0.673,�k��,3.1,��
2019/10/27,20:40,0.709,0.997,0.651,1.230,0.856,0.411,0.709,0.673,�k��,2.8,��
2019/10/27,20:50,0.708,0.997,0.651,1.232,0.855,0.410,0.709,0.672,���k��,3.0,��
2019/10/27,21:00,0.707,0.998,0.650,1.230,0.855,0.412,0.709,0.674,�k��,4.6,��
2019/10/27,21:10,0.708,0.998,0.651,1.231,0.856,0.411,0.708,0.673,�k��,4.5,��
2019/10/27,21:20,0.707,0.998,0.651,1.232,0.857,0.410,0.709,0.673,�k��,4.3,��
2019/10/27,21:30,0.708,0.998,0.651,1.231,0.856,0.411,0.708,0.673,�k��,3.5,��
2019/10/27,21:40,0.709,0.998,0.651,1.231,0.857,0.411,0.708,0.672,�k��,3.5,��
2019/10/27,21:50,0.707,0.999,0.650,1.230,0.856,0.412,0.708,0.673,�k��,4.0,��
2019/10/27,22:00,0.707,0.998,0.649,1.230,0.857,0.411,0.707,0.675,�k�k��,4.4,��
2019/10/27,22:10,0.709,0.997,0.649,1.232,0.854,0.411,0.709,0.672,�k��,4.6,��
2019/10/27,22:20,0.707,0.997,0.650,1.231,0.855,0.411,0.710,0.673,�k��,5.0,��
2019/10/27,22:30,0.709,0.998,0.649,1.234,0.855,0.411,0.707,0.674,�k��,4.2,��
2019/10/27,22:40,0.707,0.998,0.649,1.230,0.854,0.410,0.710,0.672,�k�k��,4.7,��
2019/10/27,22:50,0.706,0.998,0.650,1.232,0.855,0.409,0.709,0.672,�k�k��,3.0,��
2019/10/27,23:00,0.707,0.997,0.652,1.231,0.858,0.411,0.710,0.672,���k��,1.5,��
2019/10/27,23:10,0.708,0.999,0.650,1.230,0.857,0.411,0.710,0.674,�k��,3.1,��
2019/10/27,23:20,0.706,0.999,0.652,1.233,0.855,0.408,0.709,0.673,�k��,3.9,��
2019/10/27,23:30,0.706,0.997,0.651,1.232,0.858,0.410,0.708,0.672,�k��,4.3,��
2019/10/27,23:40,0.706,0.997,0.650,1.231,0.857,0.409,0.710,0.673,�k�k��,4.7,��
2019/10/27,23:50,0.706,0.999,0.650,1.232,0.855,0.410,0.710,0.672,�k�k��,5.8,��
